Hourly Weather Bolshoy Hatymi

Today, 6 August, Friday

Time Temperature Precipitation Wind Pressure Humidity
00:00 +13°C° 0.2 mm 1 mps 669 mmHg 96%
01:00 +13°C° 0.2 mm 1 mps 669 mmHg 96%
02:00 +12°C° 0.2 mm 0 mps 669 mmHg 97%
03:00 +13°C° 0 mm 1 mps 669 mmHg 97%
04:00 +14°C° 0 mm 1 mps 669 mmHg 96%
05:00 +14°C° 0 mm 1 mps 669 mmHg 95%
06:00 +15°C° 0.2 mm 1 mps 669 mmHg 93%
07:00 +15°C° 0.2 mm 1 mps 669 mmHg 90%
08:00 +16°C° 0.2 mm 1 mps 669 mmHg 87%
09:00 +18°C° 0.6 mm 1 mps 669 mmHg 86%
10:00 +18°C° 0.6 mm 1 mps 669 mmHg 84%
11:00 +18°C° 0.6 mm 1 mps 669 mmHg 82%
12:00 +17°C° 0.7 mm 2 mps 670 mmHg 84%
13:00 +17°C° 0.7 mm 2 mps 670 mmHg 86%
14:00 +17°C° 0.7 mm 2 mps 670 mmHg 88%
15:00 +16°C° 0.2 mm 2 mps 670 mmHg 90%
16:00 +16°C° 0.2 mm 2 mps 670 mmHg 92%
17:00 +15°C° 0.2 mm 2 mps 670 mmHg 94%
18:00 +15°C° 0.2 mm 2 mps 670 mmHg 94%
19:00 +14°C° 0.2 mm 1 mps 670 mmHg 94%
20:00 +14°C° 0.2 mm 1 mps 671 mmHg 95%
21:00 +14°C° 0 mm 1 mps 671 mmHg 95%
22:00 +14°C° 0 mm 1 mps 671 mmHg 95%
23:00 +14°C° 0 mm 1 mps 671 mmHg 95%

Tomorrow, 7 August, Saturday

Time Temperature Precipitation Wind Pressure Humidity
00:00 +14°C° 0.4 mm 1 mps 671 mmHg 96%
01:00 +14°C° 0.4 mm 1 mps 672 mmHg 97%
02:00 +14°C° 0.4 mm 2 mps 672 mmHg 97%
03:00 +13°C° 0.4 mm 2 mps 672 mmHg 97%
04:00 +13°C° 0.4 mm 2 mps 672 mmHg 97%
05:00 +13°C° 0.4 mm 2 mps 673 mmHg 96%
06:00 +13°C° 0.2 mm 2 mps 673 mmHg 96%
07:00 +13°C° 0.2 mm 3 mps 673 mmHg 95%
08:00 +13°C° 0.2 mm 3 mps 674 mmHg 94%
09:00 +13°C° 0.1 mm 4 mps 674 mmHg 92%
10:00 +13°C° 0.1 mm 4 mps 675 mmHg 90%
11:00 +14°C° 0.1 mm 5 mps 675 mmHg 88%
12:00 +14°C° 0 mm 5 mps 675 mmHg 87%
13:00 +13°C° 0 mm 5 mps 676 mmHg 86%
14:00 +13°C° 0 mm 5 mps 676 mmHg 85%
15:00 +13°C° 0 mm 5 mps 676 mmHg 86%
16:00 +13°C° 0 mm 5 mps 677 mmHg 87%
17:00 +12°C° 0 mm 4 mps 677 mmHg 88%
18:00 +12°C° 0 mm 4 mps 678 mmHg 89%
19:00 +12°C° 0 mm 4 mps 678 mmHg 89%
20:00 +11°C° 0 mm 4 mps 678 mmHg 90%
21:00 +11°C° 0 mm 4 mps 678 mmHg 90%
22:00 +11°C° 0 mm 4 mps 679 mmHg 90%
23:00 +10°C° 0 mm 5 mps 679 mmHg 90%

Day after tomorrow, 8 August, Sunday

Time Temperature Precipitation Wind Pressure Humidity
00:00 +11°C° 0 mm 4 mps 679 mmHg 90%
01:00 +11°C° 0 mm 4 mps 679 mmHg 90%
02:00 +11°C° 0 mm 4 mps 680 mmHg 89%
03:00 +11°C° 0 mm 4 mps 680 mmHg 89%
04:00 +10°C° 0 mm 4 mps 680 mmHg 89%
05:00 +10°C° 0 mm 4 mps 680 mmHg 89%
06:00 +10°C° 0 mm 5 mps 680 mmHg 87%
07:00 +10°C° 0 mm 5 mps 680 mmHg 85%
08:00 +11°C° 0 mm 6 mps 681 mmHg 83%
09:00 +11°C° 0 mm 6 mps 681 mmHg 81%
10:00 +13°C° 0 mm 6 mps 681 mmHg 79%
11:00 +12°C° 0 mm 7 mps 681 mmHg 77%
12:00 +12°C° 0 mm 7 mps 681 mmHg 76%
13:00 +14°C° 0 mm 7 mps 681 mmHg 75%
14:00 +14°C° 0 mm 7 mps 681 mmHg 74%
15:00 +14°C° 0 mm 7 mps 681 mmHg 75%
16:00 +14°C° 0 mm 6 mps 681 mmHg 75%
17:00 +13°C° 0 mm 6 mps 681 mmHg 76%
18:00 +12°C° 0 mm 5 mps 681 mmHg 81%
19:00 +11°C° 0 mm 4 mps 681 mmHg 86%
20:00 +9°C° 0 mm 3 mps 681 mmHg 90%
21:00 +9°C° 0 mm 3 mps 681 mmHg 91%
22:00 +9°C° 0 mm 3 mps 681 mmHg 91%
23:00 +8°C° 0 mm 2 mps 681 mmHg 92%

9 August, Monday

Time Temperature Precipitation Wind Pressure Humidity
00:00 +9°C° 0 mm 2 mps 681 mmHg 90%
01:00 +9°C° 0 mm 2 mps 680 mmHg 88%
02:00 +9°C° 0 mm 3 mps 680 mmHg 86%
03:00 +9°C° 0 mm 2 mps 680 mmHg 86%
04:00 +9°C° 0 mm 2 mps 680 mmHg 87%
05:00 +9°C° 0 mm 2 mps 680 mmHg 87%
06:00 +10°C° 0 mm 3 mps 680 mmHg 81%
07:00 +11°C° 0 mm 4 mps 680 mmHg 74%
08:00 +12°C° 0 mm 5 mps 681 mmHg 68%
09:00 +13°C° 0 mm 6 mps 680 mmHg 66%
10:00 +15°C° 0 mm 6 mps 680 mmHg 64%
11:00 +16°C° 0 mm 6 mps 680 mmHg 62%
12:00 +16°C° 0 mm 6 mps 680 mmHg 61%
13:00 +17°C° 0 mm 7 mps 680 mmHg 60%
14:00 +18°C° 0 mm 7 mps 680 mmHg 59%
15:00 +17°C° 0 mm 7 mps 680 mmHg 60%
16:00 +17°C° 0 mm 7 mps 680 mmHg 61%
17:00 +16°C° 0 mm 7 mps 680 mmHg 62%
18:00 +15°C° 0 mm 6 mps 680 mmHg 67%
19:00 +13°C° 0 mm 5 mps 680 mmHg 72%
20:00 +11°C° 0 mm 3 mps 680 mmHg 78%
21:00 +11°C° 0 mm 3 mps 680 mmHg 78%
22:00 +10°C° 0 mm 3 mps 680 mmHg 79%
23:00 +9°C° 0 mm 3 mps 680 mmHg 79%

10 August, Tuesday

Time Temperature Precipitation Wind Pressure Humidity
00:00 +9°C° 0 mm 3 mps 680 mmHg 81%
01:00 +9°C° 0 mm 3 mps 680 mmHg 82%
02:00 +9°C° 0 mm 3 mps 680 mmHg 84%
03:00 +9°C° 0 mm 3 mps 681 mmHg 83%
04:00 +9°C° 0 mm 3 mps 681 mmHg 83%
05:00 +10°C° 0 mm 3 mps 681 mmHg 83%
06:00 +10°C° 0 mm 4 mps 681 mmHg 81%
07:00 +10°C° 0 mm 5 mps 681 mmHg 80%
08:00 +12°C° 0 mm 5 mps 682 mmHg 79%
09:00 +11°C° 0 mm 6 mps 682 mmHg 77%
10:00 +13°C° 0 mm 6 mps 682 mmHg 75%
11:00 +13°C° 0 mm 6 mps 682 mmHg 73%
12:00 +14°C° 0 mm 6 mps 682 mmHg 72%
13:00 +14°C° 0 mm 6 mps 682 mmHg 72%
14:00 +14°C° 0 mm 6 mps 683 mmHg 71%
15:00 +14°C° 0 mm 6 mps 683 mmHg 74%
16:00 +13°C° 0 mm 6 mps 683 mmHg 77%
17:00 +13°C° 0 mm 5 mps 683 mmHg 79%
18:00 +12°C° 0 mm 4 mps 682 mmHg 81%
19:00 +12°C° 0 mm 4 mps 682 mmHg 82%
20:00 +11°C° 0 mm 3 mps 682 mmHg 84%
21:00 +11°C° 0 mm 3 mps 682 mmHg 85%
22:00 +11°C° 0 mm 3 mps 682 mmHg 86%
23:00 +10°C° 0 mm 3 mps 682 mmHg 88%

11 August, Wednesday

Time Temperature Precipitation Wind Pressure Humidity
00:00 +10°C° 0 mm 2 mps 682 mmHg 89%
01:00 +10°C° 0 mm 2 mps 682 mmHg 90%
02:00 +9°C° 0 mm 2 mps 682 mmHg 92%
03:00 +9°C° 0 mm 2 mps 682 mmHg 92%
04:00 +10°C° 0 mm 2 mps 682 mmHg 93%
05:00 +10°C° 0 mm 2 mps 682 mmHg 94%
06:00 +11°C° 0 mm 3 mps 683 mmHg 89%
07:00 +12°C° 0 mm 3 mps 683 mmHg 85%
08:00 +13°C° 0 mm 4 mps 683 mmHg 80%
09:00 +14°C° 0 mm 4 mps 683 mmHg 79%
10:00 +14°C° 0 mm 5 mps 683 mmHg 79%
11:00 +14°C° 0 mm 5 mps 683 mmHg 78%
12:00 +14°C° 0 mm 5 mps 683 mmHg 79%
13:00 +14°C° 0 mm 5 mps 683 mmHg 80%
14:00 +14°C° 0 mm 4 mps 683 mmHg 81%
15:00 +14°C° 0 mm 4 mps 683 mmHg 82%
16:00 +14°C° 0 mm 4 mps 683 mmHg 83%
17:00 +13°C° 0 mm 3 mps 683 mmHg 85%
18:00 +12°C° 0 mm 3 mps 683 mmHg 88%
19:00 +13°C° 0 mm 2 mps 682 mmHg 91%
20:00 +12°C° 0 mm 2 mps 682 mmHg 95%
21:00 +12°C° 0 mm 2 mps 682 mmHg 95%
22:00 +10°C° 0 mm 2 mps 682 mmHg 96%
23:00 +10°C° 0 mm 2 mps 682 mmHg 96%
Show more

We Need Your Consent

Meteoprog and our Service Providers may store and access personal data such as cookies, device identifiers or other similar technologies on your device and process such data to personalise content and ads, as well as provide social media features and to analyse the traffic.

  • Store and/or access information on your device

    Cookies, device identifiers or other information can be stored or accessed on your device for the purposes indicated above.

  • Personalised ads and content, ad and content measurement, audience insights, and products development

    Ads and content can be personalised based on a profile. More data can be added to better personalise ads and content. Ad and content performance can be measured. Insights about the audience who saw the ads and content can be derived. Such data can be used to develop or improve user’s experience, systems and software.

By clicking ‘I Agree’ you will allow the use of indicated cookies, device identifiers, web beacons or other similar technologies. Your settings can be changed in the browser on your device.

For certain purposes, legitimate interests may be relied on, rather than consent. You can read more about this in our Privacy and Cookie Policy.